Weather History for Zephyrhills, FL

Change the Weather History Date:

Sunday, November 17, 2013

  Actual Average (KPCM) Record (KPCM)
Temperature  
Mean Temperature 74 °F -  
Max Temperature 84 °F 79 °F 88 °F (1948)
Min Temperature 64 °F 55 °F 24 °F (1940)
Cooling Degree Days 9    
Growing Degree Days 24 (Base 50)    
Moisture  
Dew Point 69 °F    
Average Humidity 88    
Maximum Humidity 100    
Minimum Humidity 54    
Precipitation  
Precipitation 0.00 in - - ()
Sea Level Pressure  
Sea Level Pressure 30.06 in    
Wind  
Wind Speed 3 mph (SE)    
Max Wind Speed 12 mph    
Max Gust Speed -    
Visibility 10 miles    
Events      
Averages and records for this station are not official NWS values.
T = Trace of Precipitation, MM = Missing Value Source: NWS Daily Summary

Daily Weather History Graph

Daily Weather History Graph

Search for Another Location

Airport:

Trip Planner

Search our weather history database for the weather conditions in past years. The results will help you decide how hot, cold, wet, or windy it might be!

Date:

Astronomy

Nov. 17, 2013 Rise Set
Actual Time 6:52 AM EST 5:34 PM EST
Civil Twilight 6:27 AM EST 5:59 PM EST
Nautical Twilight 5:58 AM EST 6:28 PM EST
Astronomical Twilight 5:30 AM EST 6:56 PM EST
Moon 5:50 PM EST (11/17) 6:46 AM EST (11/17)
Length of Visible Light 11h 32m
Length of Day
10h 42m
Full, 100% of the Moon is Illuminated
Nov 17
Full
Nov 25
Last Quarter
Dec 2
New
Dec 9
First Quarter
Dec 17
Full

Hourly Weather History & Observations

Time (EST) Temp. Heat Index Dew Point Humidity Pressure Visibility Wind Dir Wind Speed Gust Speed Precip Events Conditions
12:15 AM 68.0 °F - 68.0 °F 100% 30.10 in 10.0 mi NE 3.5 mph - N/A   Overcast
12:35 AM 68.0 °F - 68.0 °F 100% 30.09 in 10.0 mi NE 5.8 mph - N/A   Overcast
12:55 AM 66.2 °F - 66.2 °F 100% 30.09 in 10.0 mi Calm Calm - N/A   Overcast
1:15 AM 66.2 °F - 66.2 °F 100% 30.09 in 10.0 mi Calm Calm - N/A   Overcast
1:35 AM 66.2 °F - 66.2 °F 100% 30.09 in 10.0 mi Calm Calm - N/A   Overcast
1:55 AM 66.2 °F - 66.2 °F 100% 30.08 in 10.0 mi Calm Calm - N/A   Overcast
2:15 AM 66.2 °F - 66.2 °F 100% 30.07 in 10.0 mi Calm Calm - N/A   Overcast
2:35 AM 66.2 °F - 66.2 °F 100% 30.07 in 10.0 mi Calm Calm - N/A   Overcast
2:55 AM 64.4 °F - 64.4 °F 100% 30.07 in 10.0 mi NNE 3.5 mph - N/A   Mostly Cloudy
3:15 AM 64.4 °F - 64.4 °F 100% 30.07 in 10.0 mi NE 3.5 mph - N/A   Overcast
3:35 AM 64.4 °F - 64.4 °F 100% 30.06 in 10.0 mi Calm Calm - N/A   Overcast
3:55 AM 64.4 °F - 64.4 °F 100% 30.07 in 10.0 mi Calm Calm - N/A   Mostly Cloudy
4:15 AM 64.4 °F - 64.4 °F 100% 30.07 in 10.0 mi Calm Calm - N/A   Overcast
4:35 AM 64.4 °F - 64.4 °F 100% 30.07 in 10.0 mi Calm Calm - N/A   Overcast
4:55 AM 64.4 °F - 64.4 °F 100% 30.07 in 10.0 mi Calm Calm - N/A   Overcast
5:15 AM 64.4 °F - 64.4 °F 100% 30.07 in 10.0 mi Calm Calm - N/A   Overcast
5:35 AM 64.4 °F - 64.4 °F 100% 30.07 in 10.0 mi Calm Calm - N/A   Overcast
5:55 AM 64.4 °F - 64.4 °F 100% 30.07 in 10.0 mi Calm Calm - N/A   Overcast
6:15 AM 64.4 °F - 64.4 °F 100% 30.07 in 10.0 mi Calm Calm - N/A   Overcast
6:35 AM 64.4 °F - 64.4 °F 100% 30.07 in 10.0 mi Calm Calm - N/A   Overcast
6:55 AM 64.4 °F - 64.4 °F 100% 30.08 in 10.0 mi Calm Calm - N/A   Overcast
7:15 AM 64.4 °F - 64.4 °F 100% 30.08 in 10.0 mi East 3.5 mph - N/A   Overcast
7:35 AM 66.2 °F - 66.2 °F 100% 30.08 in 10.0 mi East 3.5 mph - N/A   Overcast
7:55 AM 68.0 °F - 68.0 °F 100% 30.08 in 10.0 mi ESE 4.6 mph - N/A   Mostly Cloudy
8:15 AM 69.8 °F - 69.8 °F 100% 30.09 in 10.0 mi East 6.9 mph - N/A   Clear
8:35 AM 71.6 °F - 71.6 °F 100% 30.09 in 10.0 mi ESE 6.9 mph - N/A   Clear
8:55 AM 73.4 °F - 73.4 °F 100% 30.10 in 10.0 mi ESE 5.8 mph - N/A   Scattered Clouds
9:15 AM 73.4 °F - 73.4 °F 100% 30.10 in 10.0 mi SE 6.9 mph - N/A   Overcast
9:35 AM 75.2 °F - 73.4 °F 94% 30.10 in 10.0 mi SE 6.9 mph - N/A   Overcast
9:55 AM 77.0 °F - 77.0 °F 100% 30.10 in 10.0 mi SSE 10.4 mph - N/A   Overcast
10:15 AM 78.8 °F - 75.2 °F 89% 30.11 in 10.0 mi SE 9.2 mph - N/A   Overcast
10:35 AM 78.8 °F - 75.2 °F 89% 30.10 in 10.0 mi SE 4.6 mph - N/A   Overcast
10:55 AM 80.6 °F 85.4 °F 73.4 °F 79% 30.10 in 10.0 mi SSE 11.5 mph - N/A   Overcast
11:15 AM 78.8 °F - 71.6 °F 78% 30.10 in 10.0 mi South 6.9 mph - N/A   Overcast
11:35 AM 80.6 °F 84.6 °F 71.6 °F 74% 30.09 in 10.0 mi SSE 4.6 mph - N/A   Overcast
11:55 AM 80.6 °F 83.9 °F 69.8 °F 70% 30.08 in 10.0 mi SE 6.9 mph - N/A   Overcast
12:15 PM 82.4 °F 85.4 °F 68.0 °F 62% 30.07 in 10.0 mi South 5.8 mph - N/A   Overcast
12:35 PM 82.4 °F 85.4 °F 68.0 °F 62% 30.06 in 10.0 mi South 5.8 mph - N/A   Overcast
12:55 PM 82.4 °F 85.4 °F 68.0 °F 62% 30.06 in 10.0 mi SSE 4.6 mph - N/A   Overcast
1:15 PM 82.4 °F 85.4 °F 68.0 °F 62% 30.05 in 10.0 mi South 6.9 mph - N/A   Overcast
1:35 PM 84.2 °F 86.6 °F 66.2 °F 55% 30.05 in 10.0 mi South 8.1 mph - N/A   Overcast
1:55 PM 82.4 °F 84.6 °F 66.2 °F 58% 30.04 in 10.0 mi SSE 3.5 mph - N/A   Overcast
2:15 PM 84.2 °F 86.6 °F 66.2 °F 55% 30.03 in 10.0 mi South 6.9 mph - N/A   Overcast
2:35 PM 84.2 °F 86.6 °F 66.2 °F 55% 30.02 in 10.0 mi SE 4.6 mph - N/A   Scattered Clouds
2:55 PM 82.4 °F 85.4 °F 68.0 °F 62% 30.02 in 10.0 mi SE 4.6 mph - N/A   Mostly Cloudy
3:15 PM 82.4 °F 84.6 °F 66.2 °F 58% 30.02 in 10.0 mi SSE 3.5 mph - N/A   Overcast
3:35 PM 84.2 °F 86.6 °F 66.2 °F 55% 30.02 in 10.0 mi SE 4.6 mph - N/A   Overcast
3:55 PM 82.4 °F 83.9 °F 64.4 °F 54% 30.02 in 10.0 mi South 5.8 mph - N/A   Mostly Cloudy
4:15 PM 82.4 °F 83.9 °F 64.4 °F 54% 30.02 in 10.0 mi SE 4.6 mph - N/A   Mostly Cloudy
4:35 PM 82.4 °F 84.6 °F 66.2 °F 58% 30.02 in 10.0 mi SE 3.5 mph - N/A   Mostly Cloudy
4:55 PM 82.4 °F 85.4 °F 68.0 °F 62% 30.02 in 10.0 mi Calm Calm - N/A   Overcast
5:15 PM 80.6 °F 83.2 °F 68.0 °F 65% 30.02 in 10.0 mi Calm Calm - N/A   Overcast
5:35 PM 78.8 °F - 71.6 °F 78% 30.03 in 10.0 mi Calm Calm - N/A   Overcast
5:55 PM 77.0 °F - 73.4 °F 89% 30.03 in 10.0 mi Calm Calm - N/A   Overcast
6:15 PM 77.0 °F - 73.4 °F 89% 30.04 in 10.0 mi Calm Calm - N/A   Overcast
6:35 PM 77.0 °F - 73.4 °F 89% 30.04 in 10.0 mi Calm Calm - N/A   Overcast
6:55 PM 77.0 °F - 73.4 °F 89% 30.05 in 10.0 mi Calm Calm - N/A   Overcast
7:15 PM 75.2 °F - 75.2 °F 100% 30.05 in 10.0 mi Calm Calm - N/A   Overcast
7:35 PM 77.0 °F - 75.2 °F 94% 30.05 in 10.0 mi Calm Calm - N/A   Overcast
7:55 PM 77.0 °F - 75.2 °F 94% 30.06 in 10.0 mi West 4.6 mph - N/A   Overcast
8:15 PM 77.0 °F - 73.4 °F 89% 30.06 in 10.0 mi Calm Calm - N/A   Overcast
8:35 PM 75.2 °F - 73.4 °F 94% 30.06 in 10.0 mi Calm Calm - N/A   Overcast
8:55 PM 73.4 °F - 73.4 °F 100% 30.06 in 10.0 mi Calm Calm - N/A   Overcast
9:15 PM 73.4 °F - 73.4 °F 100% 30.07 in 10.0 mi Calm Calm - N/A   Mostly Cloudy
9:35 PM 71.6 °F - 71.6 °F 100% 30.07 in 10.0 mi Calm Calm - N/A   Overcast
9:55 PM 71.6 °F - 71.6 °F 100% 30.07 in 10.0 mi Calm Calm - N/A   Overcast
10:15 PM 71.6 °F - 71.6 °F 100% 30.06 in 10.0 mi Calm Calm - N/A   Overcast
10:35 PM 71.6 °F - 71.6 °F 100% 30.06 in 10.0 mi Calm Calm - N/A   Scattered Clouds
10:55 PM 69.8 °F - 69.8 °F 100% 30.06 in 10.0 mi Calm Calm - N/A   Clear
11:15 PM 69.8 °F - 69.8 °F 100% 30.06 in 10.0 mi Calm Calm - N/A   Mostly Cloudy
11:35 PM 69.8 °F - 69.8 °F 100% 30.06 in 10.0 mi Calm Calm - N/A   Overcast
11:55 PM 69.8 °F - 69.8 °F 100% 30.06 in 10.0 mi Calm Calm - N/A   Overcast